This is the latest recevied weather packets stored in our database for station/object KK7ISX. If no packets are shown the sender has not sent any weather packets the latest 10 day(s).
| Time | Temp. | Humidity | Pressure | Rain* | Wind** | Luminosity | Snow |
|---|---|---|---|---|---|---|---|
| 1777777657 | 21.67° C | 36% | 1012.3 hPa | 0 mm | - | 0 W/m² | - |
| 1777777353 | 22.22° C | 36% | 1012.2 hPa | 0 mm | - | 0 W/m² | - |
| 1777777050 | 22.22° C | 35% | 1012.2 hPa | 0 mm | - | 1 W/m² | - |
| 1777776748 | 22.22° C | 35% | 1012.4 hPa | 0 mm | - | 1 W/m² | - |
| 1777776445 | 22.22° C | 35% | 1012.4 hPa | 0 mm | - | 2 W/m² | - |
| 1777776142 | 22.78° C | 35% | 1012.3 hPa | 0 mm | - | 4 W/m² | - |
| 1777775839 | 22.78° C | 34% | 1012.4 hPa | 0 mm | - | 6 W/m² | - |
| 1777775535 | 22.78° C | 34% | 1012.4 hPa | 0 mm | - | 9 W/m² | - |
| 1777775232 | 23.33° C | 33% | 1012.3 hPa | 0 mm | - | 14 W/m² | - |
| 1777774931 | 23.33° C | 33% | 1012.2 hPa | 0 mm | - | 18 W/m² | - |
| 1777774628 | 23.33° C | 33% | 1012.1 hPa | 0 mm | - | 21 W/m² | - |
| 1777774319 | 23.33° C | 32% | 1012.3 hPa | 0 mm | - | 23 W/m² | - |
| 1777774017 | 23.89° C | 32% | 1012.3 hPa | 0 mm | - | 25 W/m² | - |
| 1777773714 | 23.89° C | 32% | 1012.3 hPa | 0 mm | - | 28 W/m² | - |
| 1777773411 | 23.89° C | 32% | 1012.3 hPa | 0 mm | - | 33 W/m² | - |
| 1777773108 | 23.89° C | 30% | 1012.2 hPa | 0 mm | - | 41 W/m² | - |
| 1777772804 | 23.89° C | 30% | 1012.3 hPa | 0 mm | - | 47 W/m² | - |
| 1777772502 | 24.44° C | 30% | 1012.2 hPa | 0 mm | - | 50 W/m² | - |
| 1777772199 | 24.44° C | 29% | 1012.2 hPa | 0 mm | - | 54 W/m² | - |
| 1777771897 | 24.44° C | 29% | 1012.3 hPa | 0 mm | - | 57 W/m² | - |
| 1777771593 | 25° C | 28% | 1012.4 hPa | 0 mm | - | 62 W/m² | - |
| 1777771290 | 25° C | 28% | 1012.3 hPa | 0 mm | - | 70 W/m² | - |
| 1777770987 | 25° C | 28% | 1012.3 hPa | 0 mm | - | 76 W/m² | - |
| 1777770684 | 25.56° C | 25% | 1012.3 hPa | 0 mm | - | 82 W/m² | - |
| 1777770380 | 25.56° C | 22% | 1012.5 hPa | 0 mm | - | 89 W/m² | - |
* Rain latest hour (hover to see other rain measurements)
** Current wind speed in m/s (hover to see current wind gust speed)